Roanoke, VA

8:49 PM EST on December 06, 2019 (GMT -0500)
Roanoke Regional-Woodrum

Weather History for KROA - October, 2019

Change the Weather History Date:

Friday, October 4, 2019

  Actual Average Record
Temperature  
Mean Temperature 79 °F 61 °F  
Max Temperature 89 °F 72 °F 91 °F (1941)
Min Temperature 68 °F 51 °F 28 °F (1974)
Degree Days  
Heating Degree Days 0 5  
Month to date heating degree days 0 19  
Since 1 July heating degree days 1 68  
Cooling Degree Days 14 1  
Month to date cooling degree days 65 6  
Year to date cooling degree days 1749 1192  
Growing Degree Days 30 (Base 50)    
Moisture  
Dew Point 52 °F    
Average Humidity 42    
Maximum Humidity 68    
Minimum Humidity 16    
Precipitation  
Precipitation 0.00 in 0.09 in 1.78 in (1914)
Month to date precipitation 0.00 0.36  
Year to date precipitation 32.06 32.38  
Snow  
Snow 0.00 in - - ()
Month to date snowfall 0.0  
Since 1 July snowfall T  
Since 1 September snowfall 0.0  
Snow Depth 0.00 in    
Sea Level Pressure  
Sea Level Pressure 30.06 in    
Wind  
Wind Speed 6 mph (NW)    
Max Wind Speed 15 mph    
Max Gust Speed 22 mph    
Visibility 10 miles    
Events      
T = Trace of Precipitation, MM = Missing Value Source: NWS Daily Summary

Daily Weather History Graph

Daily Weather History Graph

Search for Another Location

Airport or City:

Astronomy

Oct. 04, 2019 Rise Set
Actual Time 7:17 AM EDT 6:58 PM EDT
Civil Twilight 6:51 AM EDT 7:24 PM EDT
Nautical Twilight 6:21 AM EDT 7:55 PM EDT
Astronomical Twilight 5:51 AM EDT 8:25 PM EDT
Moon 1:41 PM EDT (10/4) 11:33 PM EDT (10/4)
Length of Visible Light 12h 33m
Length of Day
11h 41m
Waxing Crescent, 39% of the Moon is Illuminated
Oct 4
Waxing Crescent
Oct 5
First Quarter
Oct 13
Full
Oct 21
Last Quarter
Oct 27
New

Hourly Weather History & Observations

Time (EDT) Temp. Heat Index Dew Point Humidity Pressure Visibility Wind Dir Wind Speed Gust Speed Precip Events Conditions
12:54 AM 73.0 °F - 59.0 °F 61% 29.98 in 10.0 mi NW 4.6 mph - N/A   Clear
1:54 AM 73.0 °F - 59.0 °F 61% 29.98 in 10.0 mi WNW 3.5 mph - N/A   Clear
2:54 AM 73.0 °F - 59.0 °F 61% 29.98 in 10.0 mi NW 5.8 mph - N/A   Clear
3:54 AM 73.0 °F - 57.9 °F 59% 29.99 in 10.0 mi WNW 5.8 mph - N/A   Clear
4:54 AM 73.9 °F - 59.0 °F 59% 30.00 in 10.0 mi WSW 3.5 mph - N/A   Clear
5:54 AM 73.9 °F - 59.0 °F 59% 30.01 in 10.0 mi WSW 3.5 mph - N/A   Clear
6:54 AM 73.9 °F - 61.0 °F 64% 30.03 in 10.0 mi Calm Calm - N/A   Clear
7:54 AM 73.9 °F - 62.1 °F 66% 30.04 in 10.0 mi Variable 3.5 mph - N/A   Clear
8:54 AM 78.1 °F - 62.1 °F 58% 30.06 in 10.0 mi Variable 3.5 mph - N/A   Clear
9:54 AM 80.1 °F 81.1 °F 61.0 °F 52% 30.06 in 10.0 mi West 5.8 mph - N/A   Clear
10:54 AM 82.0 °F 81.4 °F 55.0 °F 39% 30.07 in 10.0 mi WNW 6.9 mph - N/A   Clear
11:54 AM 84.9 °F - 52.0 °F 32% 30.07 in 10.0 mi NW 5.8 mph - N/A   Clear
12:54 PM 84.9 °F - 45.0 °F 25% 30.07 in 10.0 mi Variable 6.9 mph - N/A   Clear
1:54 PM 87.1 °F - 39.0 °F 18% 30.06 in 10.0 mi West 8.1 mph - N/A   Clear
2:54 PM 88.0 °F - 36.0 °F 16% 30.04 in 10.0 mi NNW 8.1 mph - N/A   Clear
3:54 PM 88.0 °F - 36.0 °F 16% 30.04 in 10.0 mi NNW 9.2 mph - N/A   Clear
4:54 PM 88.0 °F - 39.0 °F 18% 30.04 in 10.0 mi NNW 4.6 mph - N/A   Clear
5:54 PM 86.0 °F - 39.9 °F 20% 30.05 in 10.0 mi NNW 5.8 mph - N/A   Clear
6:54 PM 79.0 °F - 41.0 °F 26% 30.07 in 10.0 mi NNW 9.2 mph - N/A   Clear
7:54 PM 77.0 °F - 50.0 °F 39% 30.11 in 10.0 mi East 3.5 mph - N/A   Partly Cloudy
8:54 PM 73.9 °F - 57.0 °F 55% 30.15 in 10.0 mi East 6.9 mph - N/A   Clear
9:54 PM 72.0 °F - 52.0 °F 49% 30.18 in 10.0 mi East 13.8 mph 20.7 mph N/A   Mostly Cloudy
10:54 PM 70.0 °F - 46.9 °F 44% 30.21 in 10.0 mi East 9.2 mph - N/A   Scattered Clouds
11:54 PM 69.1 °F - 45.0 °F 42% 30.23 in 10.0 mi East 10.4 mph - N/A   Mostly Cloudy